Time,TemperatureF,DewpointF,PressureIn,WindDirection,WindDirectionDegrees,WindSpeedMPH,WindSpeedGustMPH,Humidity,HourlyPrecipIn,Conditions,Clouds,dailyrainin,SoftwareType,DateUTC
2013-04-06 00:02:00,61.0,40.0,29.82,South,181,8.0,-999.0,45,-99.99,,,-99.99,,2013-04-06 05:02:00,
2013-04-06 00:13:00,61.0,40.0,29.82,South,181,8.0,-999.0,45,-99.99,,,-99.99,,2013-04-06 05:13:00,
2013-04-06 00:22:00,61.0,39.0,29.82,South,182,9.0,-999.0,44,-99.99,,,-99.99,,2013-04-06 05:22:00,
2013-04-06 00:32:00,60.0,38.0,29.82,South,177,9.0,-999.0,44,-99.99,,,-99.99,,2013-04-06 05:32:00,
2013-04-06 00:42:00,60.0,38.0,29.82,South,177,9.0,-999.0,44,-99.99,,,-99.99,,2013-04-06 05:42:00,
2013-04-06 00:52:00,60.0,38.0,29.82,South,177,9.0,-999.0,44,-99.99,,,-99.99,,2013-04-06 05:52:00,
2013-04-06 01:02:00,60.0,39.0,29.80,South,184,8.0,-999.0,45,-99.99,,,-99.99,,2013-04-06 06:02:00,
2013-04-06 01:12:00,60.0,39.0,29.80,South,184,8.0,-999.0,45,-99.99,,,-99.99,,2013-04-06 06:12:00,
2013-04-06 01:22:00,60.0,39.0,29.80,South,184,8.0,-999.0,45,-99.99,,,-99.99,,2013-04-06 06:22:00,
2013-04-06 01:32:00,59.0,39.0,29.80,South,180,8.0,-999.0,48,-99.99,,,-99.99,,2013-04-06 06:32:00,
2013-04-06 01:42:00,59.0,39.0,29.80,South,180,8.0,-999.0,48,-99.99,,,-99.99,,2013-04-06 06:42:00,
2013-04-06 01:53:00,59.0,40.0,29.79,SSE,163,9.0,-999.0,49,-99.99,,,-99.99,,2013-04-06 06:53:00,
2013-04-06 02:03:00,59.0,41.0,29.78,South,180,7.0,-999.0,51,-99.99,,,-99.99,,2013-04-06 07:03:00,
2013-04-06 02:12:00,59.0,41.0,29.78,South,180,7.0,-999.0,51,-99.99,,,-99.99,,2013-04-06 07:12:00,
2013-04-06 02:22:00,59.0,41.0,29.77,South,172,9.0,-999.0,51,-99.99,,,-99.99,,2013-04-06 07:22:00,
2013-04-06 02:33:00,59.0,41.0,29.77,SSE,163,7.0,-999.0,51,-99.99,,,-99.99,,2013-04-06 07:33:00,
2013-04-06 02:43:00,59.0,41.0,29.77,SSE,163,7.0,-999.0,51,-99.99,,,-99.99,,2013-04-06 07:43:00,
2013-04-06 02:52:00,59.0,41.0,29.77,South,173,7.0,-999.0,52,-99.99,,,-99.99,,2013-04-06 07:52:00,
2013-04-06 03:02:00,58.0,40.0,29.76,South,170,6.0,-999.0,52,-99.99,,,-99.99,,2013-04-06 08:02:00,
2013-04-06 03:12:00,58.0,40.0,29.76,South,170,6.0,-999.0,52,-99.99,,,-99.99,,2013-04-06 08:12:00,
2013-04-06 03:22:00,58.0,40.0,29.75,South,180,8.0,-999.0,52,-99.99,,,-99.99,,2013-04-06 08:22:00,
2013-04-06 03:32:00,58.0,40.0,29.75,South,180,8.0,-999.0,52,-99.99,,,-99.99,,2013-04-06 08:32:00,
2013-04-06 03:42:00,58.0,40.0,29.75,South,180,8.0,-999.0,52,-99.99,,,-99.99,,2013-04-06 08:42:00,
2013-04-06 03:52:00,58.0,41.0,29.73,South,174,9.0,-999.0,53,-99.99,,,-99.99,,2013-04-06 08:52:00,
2013-04-06 04:02:00,58.0,41.0,29.73,South,185,9.0,-999.0,54,-99.99,,,-99.99,,2013-04-06 09:02:00,
2013-04-06 04:12:00,58.0,41.0,29.73,South,185,9.0,-999.0,54,-99.99,,,-99.99,,2013-04-06 09:12:00,
2013-04-06 04:22:00,58.0,41.0,29.72,South,180,10.0,-999.0,54,-99.99,,,-99.99,,2013-04-06 09:22:00,
2013-04-06 04:32:00,58.0,41.0,29.71,SSE,160,7.0,-999.0,54,-99.99,,,-99.99,,2013-04-06 09:32:00,
2013-04-06 04:43:00,58.0,41.0,29.71,SSE,160,7.0,-999.0,54,-99.99,,,-99.99,,2013-04-06 09:43:00,
2013-04-06 04:52:00,58.0,41.0,29.71,SSE,160,7.0,-999.0,54,-99.99,,,-99.99,,2013-04-06 09:52:00,
2013-04-06 05:03:00,57.0,42.0,29.72,South,174,8.0,-999.0,57,-99.99,,,-99.99,,2013-04-06 10:03:00,
2013-04-06 05:13:00,57.0,42.0,29.72,South,174,8.0,-999.0,57,-99.99,,,-99.99,,2013-04-06 10:13:00,
2013-04-06 05:23:00,57.0,42.0,29.71,South,180,8.0,-999.0,58,-99.99,,,-99.99,,2013-04-06 10:23:00,
2013-04-06 05:33:00,57.0,42.0,29.71,South,178,7.0,-999.0,58,-99.99,,,-99.99,,2013-04-06 10:33:00,
2013-04-06 05:42:00,57.0,42.0,29.71,South,178,7.0,-999.0,58,-99.99,,,-99.99,,2013-04-06 10:42:00,
2013-04-06 05:52:00,57.0,42.0,29.71,South,178,7.0,-999.0,58,-99.99,,,-99.99,,2013-04-06 10:52:00,
2013-04-06 06:02:00,57.0,43.0,29.72,South,179,7.0,-999.0,59,-99.99,,,-99.99,,2013-04-06 11:02:00,
2013-04-06 06:12:00,57.0,43.0,29.72,South,179,7.0,-999.0,59,-99.99,,,-99.99,,2013-04-06 11:12:00,
2013-04-06 06:23:00,57.0,43.0,29.71,South,182,4.0,-999.0,60,-99.99,,,-99.99,,2013-04-06 11:23:00,
2013-04-06 06:33:00,56.0,43.0,29.71,South,181,2.0,-999.0,61,-99.99,,,-99.99,,2013-04-06 11:33:00,
2013-04-06 06:42:00,56.0,43.0,29.71,South,181,2.0,-999.0,61,-99.99,,,-99.99,,2013-04-06 11:42:00,
2013-04-06 06:52:00,56.0,43.0,29.70,South,181,5.0,-999.0,62,-99.99,,,-99.99,,2013-04-06 11:52:00,
2013-04-06 07:02:00,56.0,44.0,29.70,South,180,6.0,-999.0,63,-99.99,,,-99.99,,2013-04-06 12:02:00,
2013-04-06 07:12:00,56.0,44.0,29.70,South,180,6.0,-999.0,63,-99.99,,,-99.99,,2013-04-06 12:12:00,
2013-04-06 07:22:00,56.0,44.0,29.70,South,180,4.0,-999.0,63,-99.99,,,-99.99,,2013-04-06 12:22:00,
2013-04-06 07:32:00,56.0,44.0,29.70,South,180,0.0,-999.0,63,-99.99,,,-99.99,,2013-04-06 12:32:00,
2013-04-06 07:43:00,56.0,44.0,29.70,South,180,0.0,-999.0,63,-99.99,,,-99.99,,2013-04-06 12:43:00,
2013-04-06 07:52:00,56.0,44.0,29.70,South,181,2.0,-999.0,63,-99.99,,,-99.99,,2013-04-06 12:52:00,
2013-04-06 08:03:00,56.0,44.0,29.70,South,181,0.0,-999.0,64,-99.99,,,-99.99,,2013-04-06 13:03:00,
2013-04-06 08:12:00,56.0,44.0,29.70,South,181,0.0,-999.0,64,-99.99,,,-99.99,,2013-04-06 13:12:00,
2013-04-06 08:23:00,57.0,45.0,29.69,South,183,6.0,-999.0,63,-99.99,,,-99.99,,2013-04-06 13:23:00,
2013-04-06 08:32:00,57.0,45.0,29.68,South,179,4.0,-999.0,63,-99.99,,,-99.99,,2013-04-06 13:32:00,
2013-04-06 08:43:00,57.0,45.0,29.68,South,179,4.0,-999.0,63,-99.99,,,-99.99,,2013-04-06 13:43:00,
2013-04-06 08:52:00,58.0,45.0,29.68,South,180,9.0,-999.0,63,-99.99,,,-99.99,,2013-04-06 13:52:00,
2013-04-06 09:04:00,58.0,45.0,29.67,South,178,5.0,-999.0,63,-99.99,,,-99.99,,2013-04-06 14:04:00,
2013-04-06 09:12:00,58.0,45.0,29.67,South,178,5.0,-999.0,63,-99.99,,,-99.99,,2013-04-06 14:12:00,
2013-04-06 09:22:00,59.0,46.0,29.67,South,181,9.0,-999.0,62,-99.99,,,-99.99,,2013-04-06 14:22:00,
2013-04-06 09:33:00,59.0,46.0,29.68,South,179,10.0,-999.0,61,-99.99,,,-99.99,,2013-04-06 14:33:00,
2013-04-06 09:42:00,59.0,46.0,29.68,South,179,10.0,-999.0,61,-99.99,,,-99.99,,2013-04-06 14:42:00,
2013-04-06 09:52:00,61.0,47.0,29.67,South,180,11.0,-999.0,60,-99.99,,,-99.99,,2013-04-06 14:52:00,
2013-04-06 10:02:00,60.0,46.0,29.67,South,177,16.0,-999.0,60,-99.99,,,-99.99,,2013-04-06 15:02:00,
2013-04-06 10:12:00,60.0,46.0,29.67,South,177,16.0,-999.0,60,-99.99,,,-99.99,,2013-04-06 15:12:00,
2013-04-06 10:22:00,61.0,47.0,29.66,South,182,15.0,-999.0,60,-99.99,,,-99.99,,2013-04-06 15:22:00,
2013-04-06 10:33:00,61.0,47.0,29.66,South,175,13.0,-999.0,60,-99.99,,,-99.99,,2013-04-06 15:33:00,
2013-04-06 10:43:00,61.0,47.0,29.66,South,175,13.0,-999.0,60,-99.99,,,-99.99,,2013-04-06 15:43:00,
2013-04-06 10:52:00,61.0,47.0,29.66,South,179,14.0,-999.0,60,-99.99,,,-99.99,,2013-04-06 15:52:00,
2013-04-06 11:05:00,63.0,48.0,29.66,South,172,14.0,-999.0,57,-99.99,,,-99.99,,2013-04-06 16:05:00,
2013-04-06 11:17:00,63.0,48.0,29.66,South,172,14.0,-999.0,57,-99.99,,,-99.99,,2013-04-06 16:17:00,
2013-04-06 11:23:00,62.0,47.0,29.65,South,178,13.0,-999.0,59,-99.99,,,-99.99,,2013-04-06 16:23:00,
2013-04-06 11:32:00,64.0,48.0,29.65,South,174,13.0,-999.0,57,-99.99,,,-99.99,,2013-04-06 16:32:00,
2013-04-06 11:42:00,64.0,48.0,29.65,South,174,13.0,-999.0,57,-99.99,,,-99.99,,2013-04-06 16:42:00,
2013-04-06 11:52:00,66.0,49.0,29.65,South,175,14.0,-999.0,55,-99.99,,,-99.99,,2013-04-06 16:52:00,
2013-04-06 12:02:00,68.0,50.0,29.65,South,184,14.0,-999.0,52,-99.99,,,-99.99,,2013-04-06 17:02:00,
2013-04-06 12:12:00,68.0,50.0,29.65,South,184,14.0,-999.0,52,-99.99,,,-99.99,,2013-04-06 17:12:00,
2013-04-06 12:22:00,68.0,49.0,29.64,South,184,9.0,-999.0,51,-99.99,,,-99.99,,2013-04-06 17:22:00,
2013-04-06 12:32:00,70.0,50.0,29.64,South,174,7.0,-999.0,49,-99.99,,,-99.99,,2013-04-06 17:32:00,
2013-04-06 12:42:00,70.0,50.0,29.64,South,174,7.0,-999.0,49,-99.99,,,-99.99,,2013-04-06 17:42:00,
2013-04-06 12:52:00,69.0,49.0,29.63,South,188,6.0,-999.0,49,-99.99,,,-99.99,,2013-04-06 17:52:00,
2013-04-06 13:03:00,69.0,48.0,29.63,South,172,6.0,-999.0,48,-99.99,,,-99.99,,2013-04-06 18:03:00,
2013-04-06 13:12:00,69.0,48.0,29.63,South,172,6.0,-999.0,48,-99.99,,,-99.99,,2013-04-06 18:12:00,
2013-04-06 13:23:00,69.0,49.0,29.62,SSW,200,3.0,-999.0,49,-99.99,,,-99.99,,2013-04-06 18:23:00,
2013-04-06 13:32:00,68.0,49.0,29.63,South,184,1.0,-999.0,51,-99.99,,,-99.99,,2013-04-06 18:32:00,
2013-04-06 13:42:00,68.0,49.0,29.63,South,184,1.0,-999.0,51,-99.99,,,-99.99,,2013-04-06 18:42:00,
2013-04-06 13:52:00,70.0,49.0,29.63,South,178,2.0,-999.0,48,-99.99,,,-99.99,,2013-04-06 18:52:00,
2013-04-06 14:03:00,71.0,50.0,29.63,South,182,2.0,-999.0,48,-99.99,,,-99.99,,2013-04-06 19:03:00,
2013-04-06 14:12:00,71.0,50.0,29.63,South,182,2.0,-999.0,48,-99.99,,,-99.99,,2013-04-06 19:12:00,
2013-04-06 14:22:00,72.0,50.0,29.63,South,169,2.0,-999.0,46,-99.99,,,-99.99,,2013-04-06 19:22:00,
2013-04-06 14:32:00,72.0,49.0,29.62,South,181,3.0,-999.0,44,-99.99,,,-99.99,,2013-04-06 19:32:00,
2013-04-06 14:42:00,72.0,49.0,29.62,South,181,3.0,-999.0,44,-99.99,,,-99.99,,2013-04-06 19:42:00,
2013-04-06 14:52:00,72.0,49.0,29.62,SW,230,2.0,-999.0,45,-99.99,,,-99.99,,2013-04-06 19:52:00,
2013-04-06 15:03:00,73.0,47.0,29.62,South,169,1.0,-999.0,39,-99.99,,,-99.99,,2013-04-06 20:03:00,
2013-04-06 15:12:00,73.0,47.0,29.62,South,169,1.0,-999.0,39,-99.99,,,-99.99,,2013-04-06 20:12:00,
2013-04-06 15:22:00,73.0,47.0,29.62,South,169,1.0,-999.0,39,-99.99,,,-99.99,,2013-04-06 20:22:00,
2013-04-06 15:32:00,74.0,45.0,29.61,SSW,203,1.0,-999.0,35,-99.99,,,-99.99,,2013-04-06 20:32:00,
2013-04-06 15:42:00,74.0,45.0,29.61,SSW,203,1.0,-999.0,35,-99.99,,,-99.99,,2013-04-06 20:42:00,
2013-04-06 15:52:00,75.0,42.0,29.62,NNW,332,2.0,-999.0,31,-99.99,,,-99.99,,2013-04-06 20:52:00,
2013-04-06 16:02:00,75.0,43.0,29.62,NE,34,0.0,-999.0,32,-99.99,,,-99.99,,2013-04-06 21:02:00,
2013-04-06 16:13:00,74.0,44.0,29.62,NNW,346,1.0,-999.0,34,-99.99,,,-99.99,,2013-04-06 21:13:00,
2013-04-06 16:22:00,74.0,44.0,29.62,NNW,346,1.0,-999.0,34,-99.99,,,-99.99,,2013-04-06 21:22:00,
2013-04-06 16:33:00,76.0,44.0,29.64,North,9,1.0,-999.0,32,-99.99,,,-99.99,,2013-04-06 21:33:00,
2013-04-06 16:43:00,76.0,44.0,29.64,North,9,1.0,-999.0,32,-99.99,,,-99.99,,2013-04-06 21:43:00,
2013-04-06 16:52:00,75.0,44.0,29.64,NNW,340,1.0,-999.0,33,-99.99,,,-99.99,,2013-04-06 21:52:00,
2013-04-06 17:03:00,74.0,44.0,29.64,SSE,161,2.0,-999.0,34,-99.99,,,-99.99,,2013-04-06 22:03:00,
2013-04-06 17:13:00,74.0,44.0,29.64,SSE,161,2.0,-999.0,34,-99.99,,,-99.99,,2013-04-06 22:13:00,
2013-04-06 17:23:00,75.0,43.0,29.65,WNW,289,1.0,-999.0,32,-99.99,,,-99.99,,2013-04-06 22:23:00,
2013-04-06 17:34:00,74.0,47.0,29.66,NW,308,0.0,-999.0,38,-99.99,,,-99.99,,2013-04-06 22:34:00,
2013-04-06 17:43:00,74.0,47.0,29.66,NW,308,0.0,-999.0,38,-99.99,,,-99.99,,2013-04-06 22:43:00,
2013-04-06 17:53:00,75.0,45.0,29.67,ENE,75,0.0,-999.0,35,-99.99,,,-99.99,,2013-04-06 22:53:00,
2013-04-06 18:03:00,74.0,46.0,29.67,North,355,1.0,-999.0,37,-99.99,,,-99.99,,2013-04-06 23:03:00,
2013-04-06 18:13:00,74.0,46.0,29.67,North,355,1.0,-999.0,37,-99.99,,,-99.99,,2013-04-06 23:13:00,
2013-04-06 18:23:00,73.0,47.0,29.68,West,277,0.0,-999.0,39,-99.99,,,-99.99,,2013-04-06 23:23:00,
2013-04-06 18:34:00,73.0,44.0,29.69,NW,321,0.0,-999.0,36,-99.99,,,-99.99,,2013-04-06 23:34:00,
2013-04-06 18:42:00,73.0,44.0,29.69,NW,321,0.0,-999.0,36,-99.99,,,-99.99,,2013-04-06 23:42:00,
2013-04-06 18:52:00,72.0,45.0,29.69,NNW,346,1.0,-999.0,38,-99.99,,,-99.99,,2013-04-06 23:52:00,
2013-04-06 19:02:00,72.0,44.0,29.70,NNE,20,0.0,-999.0,36,-99.99,,,-99.99,,2013-04-07 00:02:00,
2013-04-06 19:12:00,72.0,44.0,29.70,NNE,20,0.0,-999.0,36,-99.99,,,-99.99,,2013-04-07 00:12:00,
2013-04-06 19:22:00,70.0,44.0,29.70,NW,324,0.0,-999.0,39,-99.99,,,-99.99,,2013-04-07 00:22:00,
2013-04-06 19:33:00,69.0,44.0,29.71,NNW,338,0.0,-999.0,41,-99.99,,,-99.99,,2013-04-07 00:33:00,
2013-04-06 19:42:00,69.0,44.0,29.71,NNW,338,0.0,-999.0,41,-99.99,,,-99.99,,2013-04-07 00:42:00,
2013-04-06 19:52:00,67.0,43.0,29.71,NNW,338,0.0,-999.0,42,-99.99,,,-99.99,,2013-04-07 00:52:00,
2013-04-06 20:02:00,66.0,43.0,29.72,NNW,338,0.0,-999.0,43,-99.99,,,-99.99,,2013-04-07 01:02:00,
2013-04-06 20:12:00,66.0,43.0,29.72,NNW,338,0.0,-999.0,43,-99.99,,,-99.99,,2013-04-07 01:12:00,
2013-04-06 20:23:00,64.0,42.0,29.72,NNW,338,0.0,-999.0,45,-99.99,,,-99.99,,2013-04-07 01:23:00,
2013-04-06 20:32:00,63.0,42.0,29.73,NNW,338,0.0,-999.0,46,-99.99,,,-99.99,,2013-04-07 01:32:00,
2013-04-06 20:42:00,63.0,42.0,29.73,NNW,338,0.0,-999.0,46,-99.99,,,-99.99,,2013-04-07 01:42:00,
2013-04-06 20:52:00,62.0,42.0,29.74,NNW,338,0.0,-999.0,47,-99.99,,,-99.99,,2013-04-07 01:52:00,
2013-04-06 21:03:00,61.0,42.0,29.73,NNW,338,0.0,-999.0,49,-99.99,,,-99.99,,2013-04-07 02:03:00,
2013-04-06 21:12:00,61.0,42.0,29.73,NNW,338,0.0,-999.0,49,-99.99,,,-99.99,,2013-04-07 02:12:00,
2013-04-06 21:23:00,60.0,41.0,29.74,NNW,338,0.0,-999.0,50,-99.99,,,-99.99,,2013-04-07 02:23:00,
2013-04-06 21:32:00,59.0,42.0,29.74,NNW,338,0.0,-999.0,53,-99.99,,,-99.99,,2013-04-07 02:32:00,
2013-04-06 21:42:00,59.0,42.0,29.74,NNW,338,0.0,-999.0,53,-99.99,,,-99.99,,2013-04-07 02:42:00,
2013-04-06 21:52:00,57.0,41.0,29.75,NNW,338,0.0,-999.0,54,-99.99,,,-99.99,,2013-04-07 02:52:00,
2013-04-06 22:02:00,56.0,41.0,29.75,NNW,338,0.0,-999.0,57,-99.99,,,-99.99,,2013-04-07 03:02:00,
2013-04-06 22:12:00,56.0,41.0,29.75,NNW,338,0.0,-999.0,57,-99.99,,,-99.99,,2013-04-07 03:12:00,
2013-04-06 22:22:00,54.0,40.0,29.76,NNW,338,0.0,-999.0,60,-99.99,,,-99.99,,2013-04-07 03:22:00,
2013-04-06 22:34:00,54.0,41.0,29.77,NNW,338,0.0,-999.0,62,-99.99,,,-99.99,,2013-04-07 03:34:00,
2013-04-06 22:43:00,54.0,41.0,29.77,NNW,338,0.0,-999.0,62,-99.99,,,-99.99,,2013-04-07 03:43:00,
2013-04-06 22:53:00,53.0,39.0,29.77,NNW,338,0.0,-999.0,60,-99.99,,,-99.99,,2013-04-07 03:53:00,
2013-04-06 23:03:00,53.0,41.0,29.77,NNW,338,0.0,-999.0,63,-99.99,,,-99.99,,2013-04-07 04:03:00,
2013-04-06 23:14:00,53.0,41.0,29.77,NNW,338,0.0,-999.0,63,-99.99,,,-99.99,,2013-04-07 04:14:00,
2013-04-06 23:23:00,52.0,40.0,29.77,NNW,338,0.0,-999.0,64,-99.99,,,-99.99,,2013-04-07 04:23:00,
2013-04-06 23:32:00,52.0,41.0,29.77,NNW,338,0.0,-999.0,67,-99.99,,,-99.99,,2013-04-07 04:32:00,
2013-04-06 23:43:00,52.0,41.0,29.77,NNW,338,0.0,-999.0,67,-99.99,,,-99.99,,2013-04-07 04:43:00,
2013-04-06 23:52:00,52.0,41.0,29.78,NNW,338,0.0,-999.0,66,-99.99,,,-99.99,,2013-04-07 04:52:00,